This is the latest recevied weather packets stored in our database for station/object DL6MM-4. If no packets are shown the sender has not sent any weather packets the latest 10 day(s).
| Time | Temp. | Humidity | Pressure | Rain* | Wind** | Luminosity | Snow |
|---|---|---|---|---|---|---|---|
| 1777658955 | 19.44° C | 43% | 1022.2 hPa | 0 mm | - | - | - |
| 1777658355 | 20° C | 41% | 1022.2 hPa | 0 mm | - | - | - |
| 1777657755 | 20.56° C | 40% | 1022.2 hPa | 0 mm | - | - | - |
| 1777657155 | 20.56° C | 40% | 1022.1 hPa | 0 mm | - | - | - |
| 1777656555 | 20.56° C | 39% | 1022.2 hPa | 0 mm | - | - | - |
| 1777655955 | 21.11° C | 39% | 1022.2 hPa | 0 mm | - | - | - |
| 1777655355 | 21.11° C | 40% | 1022.2 hPa | 0 mm | - | - | - |
| 1777654755 | 21.11° C | 40% | 1022.4 hPa | 0 mm | - | - | - |
| 1777654155 | 21.67° C | 40% | 1022.6 hPa | 0 mm | - | - | - |
| 1777653555 | 21.67° C | 38% | 1022.7 hPa | 0 mm | - | - | - |
| 1777652955 | 21.67° C | 38% | 1022.7 hPa | 0 mm | - | - | - |
| 1777652355 | 21.67° C | 39% | 1022.7 hPa | 0 mm | - | - | - |
| 1777651755 | 22.22° C | 40% | 1022.9 hPa | 0 mm | - | - | - |
| 1777651155 | 22.22° C | 37% | 1023 hPa | 0 mm | - | - | - |
| 1777650555 | 21.67° C | 38% | 1023.1 hPa | 0 mm | - | - | - |
| 1777649955 | 22.22° C | 38% | 1023.1 hPa | 0 mm | - | - | - |
| 1777649355 | 22.22° C | 36% | 1023.2 hPa | 0 mm | - | - | - |
| 1777648755 | 22.22° C | 36% | 1023.4 hPa | 0 mm | - | - | - |
| 1777648155 | 22.22° C | 36% | 1023.6 hPa | 0 mm | - | - | - |
| 1777647555 | 22.22° C | 38% | 1023.7 hPa | 0 mm | - | - | - |
| 1777646955 | 22.22° C | 38% | 1023.7 hPa | 0 mm | - | - | - |
| 1777646355 | 22.22° C | 37% | 1023.9 hPa | 0 mm | - | - | - |
| 1777645755 | 22.22° C | 37% | 1024 hPa | 0 mm | - | - | - |
| 1777645155 | 22.22° C | 38% | 1024.2 hPa | 0 mm | - | - | - |
| 1777644555 | 22.22° C | 38% | 1024.3 hPa | 0 mm | - | - | - |
* Rain latest hour (hover to see other rain measurements)
** Current wind speed in m/s (hover to see current wind gust speed)